Location: Axtheid
(49.6213°N, 11.8205°E)
Time: 20:09:58
(UTC+00:00)

Cosmos 2237 Rocket - Pass Details

Date: 18 February 2020
Orbit: 835 x 849 km, 71.0° (Epoch: 30 March)

Event Time Altitude Azimuth Distance (km) Brightness Sun altitude
Exits shadow 05:31:05 - 300° (WNW) 2,630 4.2 -8.3°
Reaches altitude 10° 05:32:06 10° 310° (NW) 2,456 4.1 -8.1°
Maximum altitude 05:34:25 12° 334° (NNW) 2,286 4.1 -7.7°
Drops below altitude 10° 05:36:43 10° 359° (N) 2,459 4.5 -7.4°
Sets 05:40:53 0° 28° (NNE) 3,397 5.6 -6.7°
